Probability
3 3 3 3 0 0 0 0 0 3 3 3 3 3 3 3 3 3 3 3 3 3 3 3 3 3 0 3 3 0 0 0 0 0 0 0 0 0 0 0 0 0 0
0 3 3 0 0 0 0 0 0 0 0 0 0 0 0 0 0 3 3 3 3 3 3 3 0 3 3 3 0 0 0 0 0 0 0 0 0 0 0 0 0 0 0
0 0 0 0 0 0 0 0 0 0 0 0 0 0 0 0 0 0 0 0 0 0 0 0 0 0 3 3 0 0 0 3 3 0 0 0 0 0 0 0 0 0 0
0 0 0 0 0 0 0 0 0 0 0 0 0 0 0 0 0 0 0 0 0 0 0 0 0 3 0 0 0 0 0 0 0 3 3 0 0 0 0 0 0 0 0
0 0 0 0 0 0 0 0 0 0 3 0 0 0 0 0 0 0 0 0 0 0 0 0 0 0 3 0 0 0 0 0 0 0 0 0 0 0 0 0 0 0 0
0 0 0 0 0 0 0 0 0 0 0 3 3 0 3 0 0 0 0 0 0 0 0 0 0 0 0 0 0 0 0 0 0 0 0 0 0 0 0 0 0 0 0
0 0 0 0 0 0 0 0 0 0 0 0 3 0 0 0 0 0 0 0 0 0 0 0 0 0 0 0 0 0 0 0 0 0 0 0 0 0 0 0 0 0 0
0 0 0 0 0 0 0 0 0 0 0 0 0 0 0 0 0 0 0 0 0 3 0 0 0 0 0 0 0 0 0 0 0 0 0 0 0 0 0 0 0 0 0
0 0 0 0 0 0 0 0 0 0 0 0 0 0 0 0 0 0 0 3 0 3 0 0 0 0 0 0 0 0 0 0 0 0 0 0 0 0 0 0 0 0 0
0 0 0 0 0 0 0 0 0 0 0 0 0 0 0 0 0 0 0 6 0 0 0 0 0 0 0 0 0 0 0 0 0 0 0 0 0 0 0 0 0 0 0
0 0 0 0 0 0 0 0 0 0 0 0 0 0 0 0 0 0 0 0 0 0 0 0 0 0 0 0 0 0 0 0 0 0 0 0 0 0 0 0 0 0 0
0 0 0 0 0 0 0 0 0 0 0 0 0 0 0 0 0 0 0 0 0 3 0 0 0 0 0 0 0 0 0 0 0 0 0 0 0 0 0 0 0 0 0
0 0 0 0 0 0 0 0 0 0 0 0 0 0 0 0 0 0 0 0 0 0 0 0 0 0 0 0 0 0 0 0 0 0 0 0 0 0 0 0 0 0 0
0 0 0 0 0 0 0 0 0 0 0 0 0 0 0 0 0 0 0 0 0 0 0 0 0 0 0 0 0 0 0 0 0 0 0 0 0 0 0 0 0 0 0
0 0 0 0 0 0 0 0 0 0 0 0 0 0 0 0 0 0 0 0 0 0 0 0 0 0 0 0 0 0 0 0 0 0 0 0 0 0 0 0 0 0 0
0 0 0 0 0 0 0 0 0 0 0 0 0 0 0 0 0 0 0 0 0 0 0 0 0 0 0 0 0 0 0 0 0 0 0 0 0 0 0 0 0 0 0
0 0 0 0 0 0 0 0 0 0 0 0 0 0 0 0 0 0 0 0 0 0 0 0 0 0 0 0 0 0 0 0 0 0 0 0 0 0 0 0 0 0 0
0 0 0 0 0 0 0 0 0 0 0 0 0 0 0 0 0 0 0 0 0 0 0 0 0 0 0 0 0 0 0 0 0 0 0 0 0 0 0 0 0 0 0
0 0 0 0 0 0 0 0 0 0 0 0 0 0 0 0 0 0 0 0 0 0 0 0 0 0 0 0 0 0 0 0 0 0 0 0 0 0 0 0 0 0 0
0 0 0 0 0 0 0 0 0 0 0 0 0 0 0 0 0 0 0 0 0 0 0 0 0 0 0 0 0 0 0 0 0 0 0 0 0 0 0 0 0 0 0
0 0 0 0 0 0 0 0 0 0 0 0 0 0 0 0 0 0 0 0 0 0 0 0 0 0 0 0 0 0 0 0 0 0 0 0 0 0 0 0 0 0 0
0 0 0 0 0 0 0 0 0 0 0 0 0 0 0 0 0 0 0 0 0 0 0 0 0 0 0 0 0 0 0 0 0 0 0 0 0 0 0 0 0 0 0
0 0 0 0 0 0 0 0 0 0 0 0 0 0 0 0 0 0 0 0 0 0 0 0 0 0 0 0 0 0 0 0 0 0 0 0 0 0 0 0 0 0 0
0 0 0 0 0 0 0 0 0 0 0 0 0 0 0 0 0 0 0 0 0 0 0 0 0 0 0 0 0 0 0 0 0 0 0 0 0 0 0 0 0 0 0
0 0 0 0 0 0 0 0 0 0 0 0 0 0 0 0 0 0 0 0 0 0 0 0 0 0 0 0 0 0 0 0 0 0 0 0 0 0 0 0 0 0 0
0 0 0 0 0 0 0 0 0 0 0 0 0 0 0 0 0 0 0 0 0 0 0 0 0 0 0 0 0 0 0 0 0 0 0 0 0 0 0 0 0 0 0
Height
5790 5791 5791 5793 5793 5794 5794 5795 5796 5796 5797 5798 5799 5800 5801 5802 5804 5806 5808 5811 5813 5814 5814 5815 5816 5816 5816 5816 5816 5817 5817 5817 5818 5817 5817 5817 5818 5818 5818 5818 5819 5820 5821
5784 5785 5786 5786 5788 5788 5789 5790 5790 5791 5792 5793 5794 5795 5796 5798 5800 5802 5803 5805 5807 5807 5808 5809 5809 5810 5810 5810 5810 5810 5810 5811 5811 5811 5811 5811 5811 5811 5812 5812 5813 5814 5815
5781 5782 5782 5783 5784 5785 5786 5787 5787 5788 5789 5790 5792 5793 5794 5795 5796 5798 5799 5800 5801 5801 5802 5803 5803 5803 5804 5804 5804 5804 5804 5805 5805 5805 5805 5805 5805 5805 5806 5806 5807 5807 5808
5780 5781 5781 5782 5783 5783 5784 5785 5785 5786 5787 5788 5789 5790 5791 5792 5792 5793 5794 5794 5795 5795 5796 5796 5797 5797 5797 5797 5797 5798 5798 5798 5799 5799 5799 5799 5800 5799 5800 5800 5800 5800 5801
5781 5781 5782 5783 5783 5783 5784 5784 5785 5785 5785 5786 5787 5787 5787 5787 5788 5788 5788 5788 5789 5789 5790 5790 5790 5790 5791 5791 5791 5791 5791 5792 5792 5793 5793 5793 5794 5794 5794 5794 5794 5794 5794
5783 5784 5784 5784 5784 5784 5783 5783 5783 5783 5783 5783 5782 5782 5782 5782 5782 5781 5781 5782 5782 5783 5783 5783 5784 5784 5784 5784 5784 5785 5785 5785 5786 5787 5787 5788 5788 5788 5788 5788 5788 5788 5788
5785 5785 5785 5785 5784 5783 5782 5782 5781 5780 5779 5778 5777 5777 5776 5776 5775 5775 5775 5775 5775 5776 5776 5777 5777 5778 5777 5778 5778 5778 5779 5779 5780 5780 5781 5781 5782 5782 5783 5783 5783 5783 5783
5787 5786 5786 5785 5784 5782 5781 5780 5778 5777 5775 5774 5772 5771 5770 5769 5768 5768 5767 5768 5768 5769 5769 5770 5770 5771 5771 5771 5771 5772 5773 5773 5773 5774 5775 5775 5776 5776 5777 5777 5778 5778 5778
5788 5787 5786 5784 5783 5781 5779 5777 5775 5773 5771 5769 5767 5765 5764 5762 5761 5761 5760 5761 5761 5762 5762 5763 5763 5764 5764 5765 5766 5767 5767 5768 5768 5768 5769 5769 5770 5770 5771 5772 5772 5772 5772
5790 5789 5787 5785 5783 5780 5778 5775 5773 5770 5768 5765 5763 5761 5759 5757 5756 5755 5754 5754 5754 5755 5755 5756 5756 5757 5758 5759 5760 5761 5762 5763 5763 5763 5764 5764 5765 5765 5765 5766 5766 5767 5767
5792 5790 5788 5786 5783 5780 5777 5774 5771 5768 5765 5762 5759 5757 5754 5752 5751 5749 5748 5748 5748 5749 5750 5750 5751 5752 5753 5754 5756 5757 5757 5758 5758 5759 5759 5760 5760 5760 5761 5761 5761 5761 5762
5795 5792 5790 5787 5784 5781 5778 5774 5771 5767 5764 5760 5757 5754 5751 5749 5747 5745 5744 5743 5743 5743 5744 5745 5746 5747 5749 5750 5751 5752 5753 5754 5754 5755 5755 5756 5756 5756 5756 5756 5757 5756 5756
5797 5795 5792 5789 5786 5783 5779 5775 5772 5768 5764 5760 5756 5752 5749 5746 5744 5742 5740 5739 5739 5739 5740 5741 5742 5744 5745 5746 5747 5748 5749 5750 5751 5751 5752 5752 5752 5752 5752 5752 5752 5752 5751
5800 5798 5795 5792 5788 5785 5781 5777 5773 5769 5765 5760 5756 5753 5750 5746 5743 5741 5739 5738 5737 5737 5738 5739 5740 5741 5742 5743 5744 5745 5746 5747 5748 5748 5749 5749 5749 5749 5749 5748 5748 5747 5746
5803 5801 5798 5794 5791 5788 5784 5780 5775 5771 5767 5763 5758 5755 5751 5748 5745 5742 5739 5738 5737 5737 5737 5738 5739 5740 5741 5742 5742 5743 5744 5744 5745 5746 5746 5746 5746 5746 5746 5745 5744 5743 5742
5806 5803 5801 5797 5794 5791 5787 5783 5778 5774 5769 5765 5761 5758 5754 5751 5747 5745 5742 5740 5739 5738 5739 5739 5740 5740 5741 5741 5742 5742 5742 5743 5743 5744 5744 5745 5745 5744 5744 5743 5741 5740 5738
5809 5806 5803 5800 5797 5794 5790 5786 5782 5778 5773 5769 5765 5761 5758 5755 5752 5749 5747 5744 5743 5742 5742 5742 5742 5742 5742 5743 5743 5743 5743 5743 5744 5744 5744 5744 5744 5743 5742 5741 5739 5737 5735
5812 5809 5806 5803 5800 5797 5793 5790 5786 5782 5777 5773 5770 5766 5763 5760 5757 5755 5752 5750 5749 5747 5747 5746 5746 5746 5746 5745 5745 5745 5745 5745 5745 5745 5744 5744 5743 5743 5742 5740 5738 5736 5733
5814 5812 5809 5806 5803 5800 5796 5793 5789 5786 5782 5779 5775 5772 5769 5766 5763 5761 5758 5757 5755 5754 5752 5752 5751 5751 5750 5749 5749 5749 5748 5748 5747 5747 5746 5745 5744 5743 5741 5740 5738 5735 5732
5817 5814 5811 5808 5806 5803 5799 5796 5793 5790 5787 5784 5780 5777 5774 5772 5769 5767 5765 5763 5761 5760 5758 5757 5756 5756 5755 5754 5753 5752 5752 5751 5750 5749 5748 5747 5745 5744 5742 5740 5738 5735 5731
5819 5816 5814 5811 5808 5806 5803 5800 5797 5794 5791 5788 5785 5783 5780 5777 5775 5773 5771 5769 5767 5765 5764 5763 5761 5760 5759 5758 5757 5756 5755 5754 5753 5751 5750 5749 5747 5745 5743 5741 5738 5735 5731
5821 5819 5816 5814 5811 5808 5805 5803 5800 5797 5794 5792 5789 5787 5785 5782 5780 5778 5776 5774 5772 5771 5769 5768 5766 5765 5764 5762 5761 5760 5758 5757 5755 5754 5752 5750 5748 5746 5744 5741 5738 5735 5731
5822 5820 5818 5816 5813 5811 5808 5805 5803 5800 5798 5795 5793 5791 5789 5786 5784 5782 5781 5779 5777 5775 5774 5772 5771 5769 5767 5766 5764 5763 5761 5759 5757 5755 5753 5751 5749 5747 5744 5741 5738 5735 5731
5822 5821 5819 5817 5815 5813 5810 5808 5805 5803 5801 5798 5796 5794 5792 5790 5788 5786 5785 5783 5781 5780 5778 5776 5775 5773 5771 5769 5768 5766 5763 5761 5759 5757 5755 5752 5750 5747 5744 5741 5738 5735 5731
5822 5821 5819 5818 5816 5814 5812 5810 5807 5805 5803 5801 5799 5797 5795 5793 5791 5790 5788 5786 5785 5783 5782 5780 5778 5776 5774 5772 5770 5768 5766 5764 5761 5759 5756 5754 5751 5748 5745 5742 5739 5735 5731
5821 5820 5818 5817 5816 5814 5813 5811 5809 5807 5805 5803 5801 5799 5797 5795 5794 5792 5791 5789 5788 5786 5785 5783 5781 5779 5777 5775 5773 5771 5769 5766 5764 5761 5758 5755 5752 5749 5746 5743 5739 5735 5732
Wind_Speed
27 28 29 29 28 29 29 29 28 27 26 25 25 25 24 23 22 21 21 21 22 24 24 24 25 25 25 25 25 25 25 25 24 24 25 24 24 24 23 24 25 25 26
20 21 22 21 21 20 21 21 20 19 17 16 16 17 16 16 17 18 19 21 22 23 24 24 25 25 25 25 25 25 24 24 24 24 25 24 23 24 24 23 24 25 26
11 10 10 10 11 11 12 12 11 10 10 10 11 12 13 14 16 18 20 21 22 23 23 24 24 24 25 25 24 24 24 24 24 23 24 24 23 23 24 24 24 24 25
2 3 3 3 3 3 3 4 4 5 7 8 10 12 14 16 17 19 20 20 21 22 23 24 24 24 24 24 24 24 23 23 23 23 24 24 23 22 22 23 24 25 25
7 6 5 4 3 3 3 3 4 5 7 9 12 14 16 17 18 19 20 21 22 22 23 22 23 23 23 23 24 24 24 24 24 24 24 23 23 22 22 22 22 22 23
9 8 7 6 5 5 5 6 8 9 11 12 14 16 17 18 19 20 21 22 22 22 22 22 22 22 22 23 23 23 23 23 23 23 24 23 23 22 22 21 21 20 20
10 9 8 7 7 7 8 9 10 11 13 14 15 17 18 19 20 21 22 22 22 22 22 22 22 22 22 21 22 22 22 22 22 22 22 22 22 22 22 21 21 20 20
11 10 10 9 9 9 10 10 11 12 13 15 16 18 19 19 20 21 21 22 22 22 22 21 21 21 21 21 20 21 21 21 21 21 21 21 21 20 20 20 20 20 19
13 13 13 12 12 12 12 12 13 13 14 14 15 16 16 17 18 19 20 21 21 21 20 20 20 20 20 20 19 18 18 18 19 19 19 19 19 19 19 19 19 18 19
15 15 14 14 14 14 14 14 14 14 14 14 15 15 14 15 15 16 17 18 18 18 17 17 17 18 18 17 16 16 16 16 16 16 17 17 17 17 18 18 18 18 18
17 16 16 17 17 17 16 16 16 15 15 15 14 13 13 13 13 13 13 14 14 14 14 14 14 14 14 14 14 14 14 14 14 14 14 15 15 16 16 16 17 17 18
18 18 18 19 19 19 19 19 18 17 16 16 15 13 13 12 11 11 10 10 11 11 11 11 12 11 12 12 12 12 12 12 12 12 13 13 13 13 14 14 15 16 17
18 19 19 20 20 20 20 20 20 19 18 18 16 15 14 12 10 9 8 7 7 7 7 8 9 9 9 10 10 11 11 11 11 11 11 11 11 12 13 14 14 15 17
18 19 20 20 21 21 21 21 21 20 20 19 18 16 15 15 13 11 8 6 4 2 3 4 5 5 6 7 7 8 9 9 9 9 9 10 10 11 12 13 14 15 16
18 19 20 20 21 21 22 22 22 21 21 20 19 18 17 17 15 14 11 9 6 4 2 1 1 1 2 2 3 4 5 5 6 7 7 8 9 9 11 12 13 14 15
18 18 19 20 20 21 22 22 23 23 22 21 20 20 19 19 17 16 14 13 11 9 7 6 5 4 2 1 1 1 1 2 3 4 5 6 7 8 9 11 12 13 15
17 18 18 19 19 20 21 22 23 23 23 23 21 20 20 20 20 19 18 16 15 14 12 11 10 8 7 7 6 5 4 4 4 4 4 4 6 7 9 10 12 13 14
17 17 18 18 18 19 20 21 22 22 23 23 22 21 21 21 21 21 20 19 18 17 15 15 14 13 11 10 9 8 8 7 7 6 6 7 7 8 9 11 12 14 15
16 17 17 18 18 19 19 20 21 21 22 22 22 22 21 21 21 20 20 20 19 18 17 16 15 15 14 14 13 12 11 10 10 10 10 10 10 10 11 12 14 15 16
15 16 16 17 18 18 19 19 20 20 20 20 21 21 21 21 21 21 20 20 19 18 18 17 16 16 15 14 14 13 13 13 12 12 12 11 11 12 12 13 15 16 18
14 15 15 16 17 18 18 19 19 19 19 19 19 19 20 20 20 20 20 20 19 18 18 17 16 15 15 14 14 14 13 13 13 13 13 12 12 13 13 14 15 17 19
12 13 14 15 15 17 18 18 18 18 18 18 18 18 18 18 18 19 19 19 18 18 18 17 17 16 15 15 15 14 14 13 13 13 13 13 13 14 14 15 16 17 19
10 11 12 13 14 15 16 17 17 17 17 16 16 16 16 16 17 17 17 17 17 17 17 17 16 16 16 15 15 15 14 14 14 14 14 14 14 15 15 16 17 18 19
8 10 11 12 13 14 14 15 15 15 15 15 15 15 15 15 15 15 15 16 16 15 15 16 16 16 16 16 16 16 16 15 15 15 15 15 15 16 16 17 17 18 19
7 8 9 10 11 12 13 13 14 14 14 14 14 13 13 13 13 13 14 14 14 14 14 14 14 15 15 15 16 16 16 17 17 17 17 17 17 17 17 17 18 19 19
8 8 8 9 9 10 11 11 12 12 12 12 12 12 11 11 11 11 11 12 12 12 13 13 13 14 14 15 15 15 16 16 17 17 18 18 18 18 18 18 19 19 20
Wind_Direction
263 264 263 264 265 266 264 266 266 265 267 266 262 257 252 248 244 241 245 252 257 261 264 265 266 267 270 271 272 273 273 273 273 273 276 276 269 265 264 263 260 255 255
263 264 261 260 261 259 259 261 260 258 257 255 250 245 243 243 244 248 252 257 260 262 264 265 266 267 269 270 271 271 271 271 272 271 275 276 271 266 265 265 262 257 254
255 257 257 252 251 251 255 251 250 252 245 239 240 243 247 251 254 257 259 261 262 263 263 264 265 267 268 269 270 270 269 269 271 270 272 274 274 270 266 265 263 260 255
199 215 210 214 211 213 234 240 244 247 250 253 255 257 258 260 262 263 263 263 265 265 264 264 266 268 268 268 268 268 269 268 269 269 270 272 273 275 270 270 267 264 258
74 85 80 72 67 36 2 330 301 286 276 271 267 266 266 267 268 268 268 269 268 267 267 267 267 267 268 268 268 269 269 269 269 269 269 271 271 273 273 275 273 269 261
61 58 48 34 15 353 335 320 310 300 290 284 280 277 274 273 271 271 271 271 270 268 268 268 268 268 269 269 269 269 270 270 270 269 269 270 271 272 273 278 279 273 270
46 40 29 17 2 347 334 324 314 305 299 293 288 284 280 277 275 274 272 271 270 269 269 269 268 269 269 269 269 268 269 270 270 270 270 271 272 272 273 277 280 279 275
38 31 23 14 3 352 341 332 323 314 306 300 295 290 286 282 278 276 274 272 271 270 269 269 267 266 266 266 267 268 268 270 270 271 271 271 271 273 273 275 277 279 278
37 31 25 17 8 359 349 340 333 326 319 312 306 300 294 288 283 279 276 273 270 268 268 267 266 265 263 263 266 268 269 270 271 272 273 273 272 272 274 275 276 277 276
37 32 26 20 14 8 2 355 347 339 332 325 317 310 304 297 289 284 279 276 272 268 265 263 263 263 259 260 265 266 268 271 273 274 273 273 273 274 275 276 277 277 278
38 34 29 24 20 17 13 8 1 354 347 341 333 325 317 308 300 293 287 281 274 267 262 259 261 261 257 258 262 265 266 270 272 274 276 275 275 275 276 279 280 279 279
38 34 30 27 24 21 18 14 10 6 2 357 352 346 339 330 319 308 299 289 279 269 261 258 257 255 255 257 259 262 266 270 272 275 277 279 280 279 280 281 283 282 282
35 32 30 28 27 25 22 19 17 15 12 10 7 4 1 356 348 336 323 308 292 276 261 255 254 252 253 256 256 261 266 269 272 274 277 280 284 287 288 288 288 288 288
36 33 31 30 28 27 25 23 21 19 18 18 19 19 18 17 14 9 3 357 345 310 264 253 251 249 249 255 260 265 268 269 272 274 277 282 287 293 296 297 296 295 293
34 32 31 30 28 27 26 26 25 24 23 23 25 26 27 26 26 27 29 33 38 45 61 101 152 210 240 261 274 273 269 271 274 278 286 291 296 302 307 310 309 307 304
31 30 29 28 28 28 27 27 28 28 28 28 30 32 33 34 35 37 40 45 52 60 69 77 81 79 76 62 47 25 319 304 298 298 305 311 315 320 322 322 321 319 317
29 27 27 27 27 27 26 26 27 29 30 32 35 37 39 40 42 45 49 53 59 64 70 75 75 76 78 75 72 68 58 47 32 19 9 354 345 342 340 338 335 334 332
29 27 27 27 26 26 26 27 28 30 32 35 38 41 42 43 46 49 51 55 60 64 68 71 72 73 71 69 68 67 64 58 49 42 32 21 13 7 3 359 355 350 345
28 27 26 26 27 26 27 27 29 31 34 36 38 41 43 45 47 50 52 56 60 63 66 68 68 67 66 65 65 63 61 56 51 44 37 32 26 20 13 9 5 2 358
25 26 26 27 27 27 27 28 29 30 33 36 38 40 42 45 48 50 52 55 58 60 62 63 63 62 62 60 58 56 54 50 46 41 37 32 27 21 17 13 11 8 4
22 24 25 26 27 26 26 27 28 30 31 34 37 39 41 44 46 48 51 54 56 57 58 59 59 58 57 55 53 50 47 45 42 38 34 29 24 19 15 12 11 9 7
18 21 22 23 23 23 24 26 27 29 31 33 34 36 39 41 44 46 48 50 51 52 53 55 55 54 53 51 48 46 43 38 34 31 27 24 21 17 13 11 9 8 7
11 14 16 17 18 19 21 23 25 27 29 31 33 35 37 39 41 43 45 46 47 48 49 50 49 48 47 46 44 40 37 33 30 26 24 21 18 16 13 11 10 9 8
357 3 7 9 11 14 17 19 21 23 26 28 30 33 35 37 39 41 42 44 45 46 46 47 46 46 44 43 40 38 35 32 29 26 23 21 19 17 15 13 11 10 9
334 343 352 359 3 7 10 13 16 19 22 24 27 29 32 35 37 38 39 40 41 41 42 42 42 41 39 38 37 35 34 33 31 29 26 24 22 21 18 16 14 12 12
311 319 329 339 348 354 360 4 9 12 15 18 21 23 26 30 32 33 33 34 34 35 35 36 36 36 36 35 34 33 32 31 30 29 27 25 24 22 20 18 16 15 13